Year,Month,Day,Hour,Minute,Value (Times are PST for temperature in C)
2012,07,05,00,00,11.40
2012,07,05,00,01,11.40
2012,07,05,00,02,11.40
2012,07,05,00,03,11.40
2012,07,05,00,04,11.40
2012,07,05,00,05,11.40
2012,07,05,00,06,11.40
2012,07,05,00,07,11.40
2012,07,05,00,08,11.40
2012,07,05,00,09,11.40
2012,07,05,00,10,11.40
2012,07,05,00,11,11.40
2012,07,05,00,12,11.40
2012,07,05,00,13,11.40
2012,07,05,00,14,11.40
2012,07,05,00,15,11.40
2012,07,05,00,16,11.40
2012,07,05,00,17,11.40
2012,07,05,00,18,11.40
2012,07,05,00,19,11.40
2012,07,05,00,20,11.40
2012,07,05,00,21,11.50
2012,07,05,00,22,11.60
2012,07,05,00,23,11.60
2012,07,05,00,24,11.60
2012,07,05,00,25,11.60
2012,07,05,00,26,11.60
2012,07,05,00,27,11.60
2012,07,05,00,28,11.60
2012,07,05,00,29,11.60
2012,07,05,00,30,11.60
2012,07,05,00,31,11.60
2012,07,05,00,32,11.60
2012,07,05,00,33,11.60
2012,07,05,00,34,11.60
2012,07,05,00,35,11.60
2012,07,05,00,36,11.60
2012,07,05,00,37,11.50
2012,07,05,00,38,11.40
2012,07,05,00,39,11.40
2012,07,05,00,40,11.40
2012,07,05,00,41,11.40
2012,07,05,00,42,11.40
2012,07,05,00,43,11.40
2012,07,05,00,44,11.40
2012,07,05,00,45,11.40
2012,07,05,00,46,11.40
2012,07,05,00,47,11.40
2012,07,05,00,48,11.40
2012,07,05,00,49,11.30
2012,07,05,00,50,11.30
2012,07,05,00,51,11.30
2012,07,05,00,52,11.30
2012,07,05,00,53,11.30
2012,07,05,00,54,11.30
2012,07,05,00,55,11.30
2012,07,05,00,56,11.20
2012,07,05,00,57,11.20
2012,07,05,00,58,11.20
2012,07,05,00,59,11.20
2012,07,05,01,00,11.10
2012,07,05,01,01,11.10
2012,07,05,01,02,11.10
2012,07,05,01,03,11.10
2012,07,05,01,04,11.00
2012,07,05,01,05,10.90
2012,07,05,01,06,10.90
2012,07,05,01,07,10.90
2012,07,05,01,08,10.90
2012,07,05,01,09,10.90
2012,07,05,01,10,10.90
2012,07,05,01,11,10.90
2012,07,05,01,12,10.90
2012,07,05,01,13,10.90
2012,07,05,01,14,10.90
2012,07,05,01,15,10.80
2012,07,05,01,16,10.80
2012,07,05,01,17,10.80
2012,07,05,01,18,10.80
2012,07,05,01,19,10.80
2012,07,05,01,20,10.80
2012,07,05,01,21,10.80
2012,07,05,01,22,10.80
2012,07,05,01,23,10.80
2012,07,05,01,24,10.70
2012,07,05,01,25,10.70
2012,07,05,01,26,10.70
2012,07,05,01,27,10.70
2012,07,05,01,28,10.70
2012,07,05,01,29,10.70
2012,07,05,01,30,10.70
2012,07,05,01,31,10.70
2012,07,05,01,32,10.60
2012,07,05,01,33,10.60
2012,07,05,01,34,10.60
2012,07,05,01,35,10.60
2012,07,05,01,36,10.60
2012,07,05,01,37,10.60
2012,07,05,01,38,10.60
2012,07,05,01,39,10.60
2012,07,05,01,40,10.60
2012,07,05,01,41,10.60
2012,07,05,01,42,10.60
2012,07,05,01,43,10.50
2012,07,05,01,44,10.40
2012,07,05,01,45,10.40
2012,07,05,01,46,10.40
2012,07,05,01,47,10.40
2012,07,05,01,48,10.40
2012,07,05,01,49,10.40
2012,07,05,01,50,10.40
2012,07,05,01,51,10.40
2012,07,05,01,52,10.40
2012,07,05,01,53,10.40
2012,07,05,01,54,10.40
2012,07,05,01,55,10.40
2012,07,05,01,56,10.40
2012,07,05,01,57,10.40
2012,07,05,01,58,10.40
2012,07,05,01,59,10.40
2012,07,05,02,00,10.30
2012,07,05,02,01,10.30
2012,07,05,02,02,10.30
2012,07,05,02,03,10.30
2012,07,05,02,04,10.30
2012,07,05,02,05,10.30
2012,07,05,02,06,10.30
2012,07,05,02,07,10.30
2012,07,05,02,08,10.30
2012,07,05,02,09,10.30
2012,07,05,02,10,10.30
2012,07,05,02,11,10.30
2012,07,05,02,12,10.20
2012,07,05,02,13,10.20
2012,07,05,02,14,10.20
2012,07,05,02,15,10.20
2012,07,05,02,16,10.20
2012,07,05,02,17,10.20
2012,07,05,02,18,10.20
2012,07,05,02,19,10.20
2012,07,05,02,20,10.20
2012,07,05,02,21,10.20
2012,07,05,02,22,10.20
2012,07,05,02,23,10.20
2012,07,05,02,24,10.20
2012,07,05,02,25,10.20
2012,07,05,02,26,10.20
2012,07,05,02,27,10.20
2012,07,05,02,28,10.20
2012,07,05,02,29,10.10
2012,07,05,02,30,10.10
2012,07,05,02,31,10.10
2012,07,05,02,32,10.10
2012,07,05,02,33,10.10
2012,07,05,02,34,10.10
2012,07,05,02,35,10.10
2012,07,05,02,36,10.10
2012,07,05,02,37,10.10
2012,07,05,02,38,10.10
2012,07,05,02,39,10.10
2012,07,05,02,40,10.10
2012,07,05,02,41,10.10
2012,07,05,02,42,10.10
2012,07,05,02,43,10.10
2012,07,05,02,44,10.10
2012,07,05,02,45,10.10
2012,07,05,02,46,10.10
2012,07,05,02,47,10.10
2012,07,05,02,48,10.10
2012,07,05,02,49,10.10
2012,07,05,02,50,10.00
2012,07,05,02,51,9.90
2012,07,05,02,52,9.90
2012,07,05,02,53,9.90
2012,07,05,02,54,9.90
2012,07,05,02,55,9.90
2012,07,05,02,56,9.90
2012,07,05,02,57,9.90
2012,07,05,02,58,9.90
2012,07,05,02,59,9.90
2012,07,05,03,00,9.90
2012,07,05,03,01,9.90
2012,07,05,03,02,9.80
2012,07,05,03,03,9.80
2012,07,05,03,04,9.80
2012,07,05,03,05,9.80
2012,07,05,03,06,9.80
2012,07,05,03,07,9.80
2012,07,05,03,08,9.90
2012,07,05,03,09,9.90
2012,07,05,03,10,9.90
2012,07,05,03,11,9.90
2012,07,05,03,12,9.90
2012,07,05,03,13,9.90
2012,07,05,03,14,9.90
2012,07,05,03,15,9.90
2012,07,05,03,16,9.90
2012,07,05,03,17,9.80
2012,07,05,03,18,9.80
2012,07,05,03,19,9.80
2012,07,05,03,20,9.80
2012,07,05,03,21,9.70
2012,07,05,03,22,9.70
2012,07,05,03,23,9.70
2012,07,05,03,24,9.70
2012,07,05,03,25,9.70
2012,07,05,03,26,9.70
2012,07,05,03,27,9.70
2012,07,05,03,28,9.70
2012,07,05,03,29,9.70
2012,07,05,03,30,9.70
2012,07,05,03,31,9.70
2012,07,05,03,32,9.70
2012,07,05,03,33,9.70
2012,07,05,03,34,9.70
2012,07,05,03,35,9.70
2012,07,05,03,36,9.70
2012,07,05,03,37,9.70
2012,07,05,03,38,9.70
2012,07,05,03,39,9.70
2012,07,05,03,40,9.70
2012,07,05,03,41,9.70
2012,07,05,03,42,9.70
2012,07,05,03,43,9.70
2012,07,05,03,44,9.70
2012,07,05,03,45,9.70
2012,07,05,03,46,9.60
2012,07,05,03,47,9.60
2012,07,05,03,48,9.60
2012,07,05,03,49,9.60
2012,07,05,03,50,9.70
2012,07,05,03,51,9.70
2012,07,05,03,52,9.70
2012,07,05,03,53,9.70
2012,07,05,03,54,9.70
2012,07,05,03,55,9.70
2012,07,05,03,56,9.70
2012,07,05,03,57,9.70
2012,07,05,03,58,9.70
2012,07,05,03,59,9.70
2012,07,05,04,00,9.70
2012,07,05,04,01,9.70
2012,07,05,04,02,9.70
2012,07,05,04,03,9.70
2012,07,05,04,04,9.70
2012,07,05,04,05,9.70
2012,07,05,04,06,9.80
2012,07,05,04,07,9.70
2012,07,05,04,08,9.70
2012,07,05,04,09,9.70
2012,07,05,04,10,9.70
2012,07,05,04,11,9.70
2012,07,05,04,12,9.70
2012,07,05,04,13,9.70
2012,07,05,04,14,9.70
2012,07,05,04,15,9.70
2012,07,05,04,16,9.70
2012,07,05,04,17,9.70
2012,07,05,04,18,9.70
2012,07,05,04,19,9.70
2012,07,05,04,20,9.70
2012,07,05,04,21,9.70
2012,07,05,04,22,9.70
2012,07,05,04,23,9.70
2012,07,05,04,24,9.70
2012,07,05,04,25,9.70
2012,07,05,04,26,9.70
2012,07,05,04,27,9.70
2012,07,05,04,28,9.70
2012,07,05,04,29,9.70
2012,07,05,04,30,9.70
2012,07,05,04,31,9.70
2012,07,05,04,32,9.70
2012,07,05,04,33,9.70
2012,07,05,04,34,9.70
2012,07,05,04,35,9.70
2012,07,05,04,36,9.70
2012,07,05,04,37,9.70
2012,07,05,04,38,9.60
2012,07,05,04,39,9.60
2012,07,05,04,40,9.60
2012,07,05,04,41,9.60
2012,07,05,04,42,9.50
2012,07,05,04,43,9.50
2012,07,05,04,44,9.50
2012,07,05,04,45,9.50
2012,07,05,04,46,9.50
2012,07,05,04,47,9.50
2012,07,05,04,48,9.50
2012,07,05,04,49,9.50
2012,07,05,04,50,9.50
2012,07,05,04,51,9.50
2012,07,05,04,52,9.50
2012,07,05,04,53,9.50
2012,07,05,04,54,9.50
2012,07,05,04,55,9.50
2012,07,05,04,56,9.50
2012,07,05,04,57,9.50
2012,07,05,04,58,9.50
2012,07,05,04,59,9.50
2012,07,05,05,00,9.50
2012,07,05,05,01,9.50
2012,07,05,05,02,9.50
2012,07,05,05,03,9.50
2012,07,05,05,04,9.50
2012,07,05,05,05,9.50
2012,07,05,05,06,9.50
2012,07,05,05,07,9.40
2012,07,05,05,08,9.40
2012,07,05,05,09,9.40
2012,07,05,05,10,9.40
2012,07,05,05,11,9.40
2012,07,05,05,12,9.40
2012,07,05,05,13,9.40
2012,07,05,05,14,9.40
2012,07,05,05,15,9.40
2012,07,05,05,16,9.40
2012,07,05,05,17,9.40
2012,07,05,05,18,9.40
2012,07,05,05,19,9.40
2012,07,05,05,20,9.40
2012,07,05,05,21,9.30
2012,07,05,05,22,9.30
2012,07,05,05,23,9.30
2012,07,05,05,24,9.30
2012,07,05,05,25,9.30
2012,07,05,05,26,9.30
2012,07,05,05,27,9.30
2012,07,05,05,28,9.30
2012,07,05,05,29,9.20
2012,07,05,05,30,9.20
2012,07,05,05,31,9.20
2012,07,05,05,32,9.20
2012,07,05,05,33,9.20
2012,07,05,05,34,9.20
2012,07,05,05,35,9.20
2012,07,05,05,36,9.20
2012,07,05,05,37,9.20
2012,07,05,05,38,9.20
2012,07,05,05,39,9.20
2012,07,05,05,40,9.20
2012,07,05,05,41,9.20
2012,07,05,05,42,9.20
2012,07,05,05,43,9.20
2012,07,05,05,44,9.20
2012,07,05,05,45,9.20
2012,07,05,05,46,9.10
2012,07,05,05,47,9.10
2012,07,05,05,48,9.20
2012,07,05,05,49,9.20
2012,07,05,05,50,9.20
2012,07,05,05,51,9.20
2012,07,05,05,52,9.20
2012,07,05,05,53,9.20
2012,07,05,05,54,9.20
2012,07,05,05,55,9.20
2012,07,05,05,56,9.20
2012,07,05,05,57,9.20
2012,07,05,05,58,9.20
2012,07,05,05,59,9.20
2012,07,05,06,00,9.20
2012,07,05,06,01,9.20
2012,07,05,06,02,9.20
2012,07,05,06,03,9.20
2012,07,05,06,04,9.20
2012,07,05,06,05,9.20
2012,07,05,06,06,9.20
2012,07,05,06,07,9.30
2012,07,05,06,08,9.30
2012,07,05,06,09,9.30
2012,07,05,06,10,9.40
2012,07,05,06,11,9.40
2012,07,05,06,12,9.50
2012,07,05,06,13,9.50
2012,07,05,06,14,9.60
2012,07,05,06,15,9.60
2012,07,05,06,16,9.60
2012,07,05,06,17,9.70
2012,07,05,06,18,9.70
2012,07,05,06,19,9.70
2012,07,05,06,20,9.80
2012,07,05,06,21,9.80
2012,07,05,06,22,9.90
2012,07,05,06,23,9.90
2012,07,05,06,24,9.90
2012,07,05,06,25,10.00
2012,07,05,06,26,10.10
2012,07,05,06,27,10.10
2012,07,05,06,28,10.20
2012,07,05,06,29,10.20
2012,07,05,06,30,10.30
2012,07,05,06,31,10.40
2012,07,05,06,32,10.40
2012,07,05,06,33,10.40
2012,07,05,06,34,10.50
2012,07,05,06,35,10.60
2012,07,05,06,36,10.60
2012,07,05,06,37,10.70
2012,07,05,06,38,10.70
2012,07,05,06,39,10.80
2012,07,05,06,40,10.80
2012,07,05,06,41,10.90
2012,07,05,06,42,10.90
2012,07,05,06,43,10.90
2012,07,05,06,44,11.10
2012,07,05,06,45,11.10
2012,07,05,06,46,11.10
2012,07,05,06,47,11.20
2012,07,05,06,48,11.30
2012,07,05,06,49,11.30
2012,07,05,06,50,11.40
2012,07,05,06,51,11.40
2012,07,05,06,52,11.50
2012,07,05,06,53,11.60
2012,07,05,06,54,11.60
2012,07,05,06,55,11.70
2012,07,05,06,56,11.80
2012,07,05,06,57,11.80
2012,07,05,06,58,11.90
2012,07,05,06,59,12.00
2012,07,05,07,00,12.10
2012,07,05,07,01,12.20
2012,07,05,07,02,12.30
2012,07,05,07,03,12.50
2012,07,05,07,04,12.70
2012,07,05,07,05,12.80
2012,07,05,07,06,13.00
2012,07,05,07,07,13.10
2012,07,05,07,08,13.20
2012,07,05,07,09,13.30
2012,07,05,07,10,13.40
2012,07,05,07,11,13.50
2012,07,05,07,12,13.60
2012,07,05,07,13,13.70
2012,07,05,07,14,13.70
2012,07,05,07,15,13.70
2012,07,05,07,16,13.80
2012,07,05,07,17,13.90
2012,07,05,07,18,13.90
2012,07,05,07,19,13.80
2012,07,05,07,20,13.80
2012,07,05,07,21,13.80
2012,07,05,07,22,13.80
2012,07,05,07,23,13.80
2012,07,05,07,24,13.80
2012,07,05,07,25,13.80
2012,07,05,07,26,13.80
2012,07,05,07,27,13.80
2012,07,05,07,28,13.80
2012,07,05,07,29,13.80
2012,07,05,07,30,13.80
2012,07,05,07,31,13.90
2012,07,05,07,32,13.90
2012,07,05,07,33,14.00
2012,07,05,07,34,14.10
2012,07,05,07,35,14.10
2012,07,05,07,36,14.20
2012,07,05,07,37,14.20
2012,07,05,07,38,14.30
2012,07,05,07,39,14.30
2012,07,05,07,40,14.30
2012,07,05,07,41,14.40
2012,07,05,07,42,14.40
2012,07,05,07,43,14.30
2012,07,05,07,44,14.30
2012,07,05,07,45,14.40
2012,07,05,07,46,14.40
2012,07,05,07,47,14.50
2012,07,05,07,48,14.50
2012,07,05,07,49,14.40
2012,07,05,07,50,14.30
2012,07,05,07,51,14.20
2012,07,05,07,52,14.20
2012,07,05,07,53,14.20
2012,07,05,07,54,14.20
2012,07,05,07,55,14.20
2012,07,05,07,56,14.20
2012,07,05,07,57,14.20
2012,07,05,07,58,14.20
2012,07,05,07,59,14.20
2012,07,05,08,00,14.20
2012,07,05,08,01,14.20
2012,07,05,08,02,14.20
2012,07,05,08,03,14.20
2012,07,05,08,04,14.20
2012,07,05,08,05,14.10
2012,07,05,08,06,14.10
2012,07,05,08,07,14.10
2012,07,05,08,08,14.10
2012,07,05,08,09,14.00
2012,07,05,08,10,14.00
2012,07,05,08,11,14.10
2012,07,05,08,12,14.10
2012,07,05,08,13,14.10
2012,07,05,08,14,14.10
2012,07,05,08,15,14.10
2012,07,05,08,16,14.00
2012,07,05,08,17,14.00
2012,07,05,08,18,14.00
2012,07,05,08,19,14.00
2012,07,05,08,20,14.00
2012,07,05,08,21,14.00
2012,07,05,08,22,14.10
2012,07,05,08,23,14.10
2012,07,05,08,24,14.20
2012,07,05,08,25,14.20
2012,07,05,08,26,14.30
2012,07,05,08,27,14.40
2012,07,05,08,28,14.40
2012,07,05,08,29,14.50
2012,07,05,08,30,14.60
2012,07,05,08,31,14.60
2012,07,05,08,32,14.60
2012,07,05,08,33,14.70
2012,07,05,08,34,14.70
2012,07,05,08,35,14.60
2012,07,05,08,36,14.60
2012,07,05,08,37,14.50
2012,07,05,08,38,14.50
2012,07,05,08,39,14.50
2012,07,05,08,40,14.50
2012,07,05,08,41,14.60
2012,07,05,08,42,14.70
2012,07,05,08,43,14.70
2012,07,05,08,44,14.70
2012,07,05,08,45,14.70
2012,07,05,08,46,14.80
2012,07,05,08,47,14.70
2012,07,05,08,48,14.70
2012,07,05,08,49,14.80
2012,07,05,08,50,14.80
2012,07,05,08,51,14.90
2012,07,05,08,52,14.90
2012,07,05,08,53,14.90
2012,07,05,08,54,14.90
2012,07,05,08,55,14.90
2012,07,05,08,56,14.90
2012,07,05,08,57,14.90
2012,07,05,08,58,14.90
2012,07,05,08,59,14.90
2012,07,05,09,00,15.00
2012,07,05,09,01,15.00
2012,07,05,09,02,15.00
2012,07,05,09,03,15.00
2012,07,05,09,04,14.90
2012,07,05,09,05,14.80
2012,07,05,09,06,14.80
2012,07,05,09,07,14.80
2012,07,05,09,08,14.80
2012,07,05,09,09,14.90
2012,07,05,09,10,15.00
2012,07,05,09,11,15.00
2012,07,05,09,12,15.10
2012,07,05,09,13,15.10
2012,07,05,09,14,15.10
2012,07,05,09,15,15.10
2012,07,05,09,16,15.20
2012,07,05,09,17,15.30
2012,07,05,09,18,15.30
2012,07,05,09,19,15.30
2012,07,05,09,20,15.30
2012,07,05,09,21,15.40
2012,07,05,09,22,15.40
2012,07,05,09,23,15.40
2012,07,05,09,24,15.20
2012,07,05,09,25,15.10
2012,07,05,09,26,15.00
2012,07,05,09,27,15.00
2012,07,05,09,28,14.90
2012,07,05,09,29,14.80
2012,07,05,09,30,14.80
2012,07,05,09,31,14.80
2012,07,05,09,32,14.80
2012,07,05,09,33,14.90
2012,07,05,09,34,14.90
2012,07,05,09,35,14.80
2012,07,05,09,36,14.70
2012,07,05,09,37,14.70
2012,07,05,09,38,14.80
2012,07,05,09,39,14.80
2012,07,05,09,40,14.80
2012,07,05,09,41,14.80
2012,07,05,09,42,14.80
2012,07,05,09,43,14.90
2012,07,05,09,44,14.80
2012,07,05,09,45,14.90
2012,07,05,09,46,14.80
2012,07,05,09,47,14.80
2012,07,05,09,48,14.80
2012,07,05,09,49,14.70
2012,07,05,09,50,14.70
2012,07,05,09,51,14.70
2012,07,05,09,52,14.80
2012,07,05,09,53,14.80
2012,07,05,09,54,14.80
2012,07,05,09,55,14.80
2012,07,05,09,56,14.80
2012,07,05,09,57,14.80
2012,07,05,09,58,14.90
2012,07,05,09,59,14.90
2012,07,05,10,00,14.90
2012,07,05,10,01,14.80
2012,07,05,10,02,14.70
2012,07,05,10,03,14.60
2012,07,05,10,04,14.60
2012,07,05,10,05,14.70
2012,07,05,10,06,14.80
2012,07,05,10,07,14.90
2012,07,05,10,08,15.00
2012,07,05,10,09,15.00
2012,07,05,10,10,15.10
2012,07,05,10,11,15.00
2012,07,05,10,12,15.10
2012,07,05,10,13,15.20
2012,07,05,10,14,15.30
2012,07,05,10,15,15.30
2012,07,05,10,16,15.30
2012,07,05,10,17,15.30
2012,07,05,10,18,15.40
2012,07,05,10,19,15.40
2012,07,05,10,20,15.40
2012,07,05,10,21,15.30
2012,07,05,10,22,15.30
2012,07,05,10,23,15.30
2012,07,05,10,24,15.30
2012,07,05,10,25,15.30
2012,07,05,10,26,15.30
2012,07,05,10,27,15.30
2012,07,05,10,28,15.40
2012,07,05,10,29,15.50
2012,07,05,10,30,15.50
2012,07,05,10,31,15.60
2012,07,05,10,32,15.60
2012,07,05,10,33,15.60
2012,07,05,10,34,15.70
2012,07,05,10,35,15.80
2012,07,05,10,36,15.80
2012,07,05,10,37,15.90
2012,07,05,10,38,15.90
2012,07,05,10,39,15.80
2012,07,05,10,40,15.80
2012,07,05,10,41,15.80
2012,07,05,10,42,15.80
2012,07,05,10,43,15.80
2012,07,05,10,44,15.70
2012,07,05,10,45,15.60
2012,07,05,10,46,15.60
2012,07,05,10,47,15.50
2012,07,05,10,48,15.40
2012,07,05,10,49,15.30
2012,07,05,10,50,15.40
2012,07,05,10,51,15.50
2012,07,05,10,52,15.50
2012,07,05,10,53,15.50
2012,07,05,10,54,15.60
2012,07,05,10,55,15.60
2012,07,05,10,56,15.50
2012,07,05,10,57,15.50
2012,07,05,10,58,15.50
2012,07,05,10,59,15.50
2012,07,05,11,00,15.50
2012,07,05,11,01,15.40
2012,07,05,11,02,15.40
2012,07,05,11,03,15.40
2012,07,05,11,04,15.40
2012,07,05,11,05,15.50
2012,07,05,11,06,15.60
2012,07,05,11,07,15.80
2012,07,05,11,08,15.80
2012,07,05,11,09,15.80
2012,07,05,11,10,15.80
2012,07,05,11,11,15.70
2012,07,05,11,12,15.60
2012,07,05,11,13,15.70
2012,07,05,11,14,15.70
2012,07,05,11,15,15.80
2012,07,05,11,16,15.90
2012,07,05,11,17,16.10
2012,07,05,11,18,16.20
2012,07,05,11,19,16.20
2012,07,05,11,20,16.30
2012,07,05,11,21,16.50
2012,07,05,11,22,16.50
2012,07,05,11,23,16.30
2012,07,05,11,24,16.20
2012,07,05,11,25,16.00
2012,07,05,11,26,15.80
2012,07,05,11,27,15.80
2012,07,05,11,28,15.80
2012,07,05,11,29,15.80
2012,07,05,11,30,15.90
2012,07,05,11,31,15.90
2012,07,05,11,32,15.90
2012,07,05,11,33,16.00
2012,07,05,11,34,16.10
2012,07,05,11,35,16.10
2012,07,05,11,36,16.20
2012,07,05,11,37,16.30
2012,07,05,11,38,16.30
2012,07,05,11,39,16.20
2012,07,05,11,40,16.10
2012,07,05,11,41,15.90
2012,07,05,11,42,15.70
2012,07,05,11,43,15.60
2012,07,05,11,44,15.50
2012,07,05,11,45,15.50
2012,07,05,11,46,15.50
2012,07,05,11,47,15.50
2012,07,05,11,48,15.50
2012,07,05,11,49,15.60
2012,07,05,11,50,15.60
2012,07,05,11,51,15.70
2012,07,05,11,52,15.80
2012,07,05,11,53,15.80
2012,07,05,11,54,15.80
2012,07,05,11,55,15.80
2012,07,05,11,56,15.80
2012,07,05,11,57,15.80
2012,07,05,11,58,15.70
2012,07,05,11,59,15.70
2012,07,05,12,00,15.60
2012,07,05,12,01,15.60
2012,07,05,12,02,15.50
2012,07,05,12,03,15.50
2012,07,05,12,04,15.60
2012,07,05,12,05,15.70
2012,07,05,12,06,15.70
2012,07,05,12,07,15.80
2012,07,05,12,08,15.80
2012,07,05,12,09,15.90
2012,07,05,12,10,15.80
2012,07,05,12,11,15.80
2012,07,05,12,12,15.80
2012,07,05,12,13,15.80
2012,07,05,12,14,15.80
2012,07,05,12,15,15.80
2012,07,05,12,16,15.90
2012,07,05,12,17,16.00
2012,07,05,12,18,16.00
2012,07,05,12,19,15.90
2012,07,05,12,20,15.90
2012,07,05,12,21,15.90
2012,07,05,12,22,15.90
2012,07,05,12,23,15.90
2012,07,05,12,24,16.10
2012,07,05,12,25,16.10
2012,07,05,12,26,16.10
2012,07,05,12,27,16.20
2012,07,05,12,28,16.30
2012,07,05,12,29,16.40
2012,07,05,12,30,16.40
2012,07,05,12,31,16.40
2012,07,05,12,32,16.30
2012,07,05,12,33,16.20
2012,07,05,12,34,16.20
2012,07,05,12,35,16.20
2012,07,05,12,36,16.20
2012,07,05,12,37,16.20
2012,07,05,12,38,16.10
2012,07,05,12,39,16.20
2012,07,05,12,40,16.30
2012,07,05,12,41,16.40
2012,07,05,12,42,16.60
2012,07,05,12,43,16.70
2012,07,05,12,44,16.80
2012,07,05,12,45,16.90
2012,07,05,12,46,16.90
2012,07,05,12,47,16.90
2012,07,05,12,48,17.00
2012,07,05,12,49,17.10
2012,07,05,12,50,17.00
2012,07,05,12,51,17.00
2012,07,05,12,52,17.00
2012,07,05,12,53,17.00
2012,07,05,12,54,16.80
2012,07,05,12,55,16.60
2012,07,05,12,56,16.50
2012,07,05,12,57,16.40
2012,07,05,12,58,16.40
2012,07,05,12,59,16.60
2012,07,05,13,00,16.80
2012,07,05,13,01,16.90
2012,07,05,13,02,17.00
2012,07,05,13,03,17.00
2012,07,05,13,04,16.90
2012,07,05,13,05,16.80
2012,07,05,13,06,16.90
2012,07,05,13,07,16.90
2012,07,05,13,08,16.90
2012,07,05,13,09,16.90
2012,07,05,13,10,16.90
2012,07,05,13,11,16.90
2012,07,05,13,12,17.00
2012,07,05,13,13,17.10
2012,07,05,13,14,17.10
2012,07,05,13,15,17.10
2012,07,05,13,16,17.10
2012,07,05,13,17,17.00
2012,07,05,13,18,17.00
2012,07,05,13,19,17.00
2012,07,05,13,20,17.00
2012,07,05,13,21,17.10
2012,07,05,13,22,17.00
2012,07,05,13,23,16.90
2012,07,05,13,24,16.90
2012,07,05,13,25,17.00
2012,07,05,13,26,17.00
2012,07,05,13,27,16.90
2012,07,05,13,28,16.90
2012,07,05,13,29,16.90
2012,07,05,13,30,16.90
2012,07,05,13,31,16.80
2012,07,05,13,32,16.80
2012,07,05,13,33,16.80
2012,07,05,13,34,16.80
2012,07,05,13,35,16.70
2012,07,05,13,36,16.70
2012,07,05,13,37,16.80
2012,07,05,13,38,16.80
2012,07,05,13,39,16.70
2012,07,05,13,40,16.60
2012,07,05,13,41,16.60
2012,07,05,13,42,16.70
2012,07,05,13,43,16.70
2012,07,05,13,44,16.70
2012,07,05,13,45,16.70
2012,07,05,13,46,16.80
2012,07,05,13,47,16.90
2012,07,05,13,48,17.00
2012,07,05,13,49,17.00
2012,07,05,13,50,17.10
2012,07,05,13,51,17.10
2012,07,05,13,52,17.00
2012,07,05,13,53,17.00
2012,07,05,13,54,16.90
2012,07,05,13,55,16.90
2012,07,05,13,56,16.90
2012,07,05,13,57,16.90
2012,07,05,13,58,17.00
2012,07,05,13,59,17.10
2012,07,05,14,00,17.20
2012,07,05,14,01,17.30
2012,07,05,14,02,17.30
2012,07,05,14,03,17.30
2012,07,05,14,04,17.30
2012,07,05,14,05,17.40
2012,07,05,14,06,17.50
2012,07,05,14,07,17.50
2012,07,05,14,08,17.40
2012,07,05,14,09,17.40
2012,07,05,14,10,17.40
2012,07,05,14,11,17.30
2012,07,05,14,12,17.30
2012,07,05,14,13,17.30
2012,07,05,14,14,17.30
2012,07,05,14,15,17.30
2012,07,05,14,16,17.40
2012,07,05,14,17,17.40
2012,07,05,14,18,17.30
2012,07,05,14,19,17.30
2012,07,05,14,20,17.30
2012,07,05,14,21,17.20
2012,07,05,14,22,17.20
2012,07,05,14,23,17.20
2012,07,05,14,24,17.30
2012,07,05,14,25,17.30
2012,07,05,14,26,17.20
2012,07,05,14,27,17.10
2012,07,05,14,28,17.00
2012,07,05,14,29,17.00
2012,07,05,14,30,16.90
2012,07,05,14,31,17.00
2012,07,05,14,32,17.00
2012,07,05,14,33,17.00
2012,07,05,14,34,17.00
2012,07,05,14,35,17.10
2012,07,05,14,36,17.20
2012,07,05,14,37,17.20
2012,07,05,14,38,17.20
2012,07,05,14,39,17.20
2012,07,05,14,40,17.20
2012,07,05,14,41,17.30
2012,07,05,14,42,17.40
2012,07,05,14,43,17.40
2012,07,05,14,44,17.40
2012,07,05,14,45,17.40
2012,07,05,14,46,17.50
2012,07,05,14,47,17.50
2012,07,05,14,48,17.50
2012,07,05,14,49,17.50
2012,07,05,14,50,17.50
2012,07,05,14,51,17.40
2012,07,05,14,52,17.50
2012,07,05,14,53,17.50
2012,07,05,14,54,17.40
2012,07,05,14,55,17.40
2012,07,05,14,56,17.30
2012,07,05,14,57,17.40
2012,07,05,14,58,17.50
2012,07,05,14,59,17.50
2012,07,05,15,00,17.50
2012,07,05,15,01,17.50
2012,07,05,15,02,17.70
2012,07,05,15,03,17.80
2012,07,05,15,04,17.80
2012,07,05,15,05,17.80
2012,07,05,15,06,17.80
2012,07,05,15,07,17.80
2012,07,05,15,08,17.90
2012,07,05,15,09,17.90
2012,07,05,15,10,17.80
2012,07,05,15,11,17.80
2012,07,05,15,12,17.70
2012,07,05,15,13,17.70
2012,07,05,15,14,17.60
2012,07,05,15,15,17.60
2012,07,05,15,16,17.60
2012,07,05,15,17,17.60
2012,07,05,15,18,17.70
2012,07,05,15,19,17.70
2012,07,05,15,20,17.70
2012,07,05,15,21,17.70
2012,07,05,15,22,17.80
2012,07,05,15,23,17.90
2012,07,05,15,24,17.90
2012,07,05,15,25,18.00
2012,07,05,15,26,17.90
2012,07,05,15,27,17.90
2012,07,05,15,28,17.90
2012,07,05,15,29,17.80
2012,07,05,15,30,17.80
2012,07,05,15,31,17.80
2012,07,05,15,32,17.70
2012,07,05,15,33,17.70
2012,07,05,15,34,17.70
2012,07,05,15,35,17.80
2012,07,05,15,36,17.80
2012,07,05,15,37,17.90
2012,07,05,15,38,18.10
2012,07,05,15,39,18.20
2012,07,05,15,40,18.30
2012,07,05,15,41,18.30
2012,07,05,15,42,18.30
2012,07,05,15,43,18.30
2012,07,05,15,44,18.30
2012,07,05,15,45,18.30
2012,07,05,15,46,18.30
2012,07,05,15,47,18.20
2012,07,05,15,48,18.20
2012,07,05,15,49,18.20
2012,07,05,15,50,18.20
2012,07,05,15,51,18.20
2012,07,05,15,52,18.30
2012,07,05,15,53,18.40
2012,07,05,15,54,18.50
2012,07,05,15,55,18.50
2012,07,05,15,56,18.40
2012,07,05,15,57,18.40
2012,07,05,15,58,18.30
2012,07,05,15,59,18.30
2012,07,05,16,00,18.40
2012,07,05,16,01,18.50
2012,07,05,16,02,18.50
2012,07,05,16,03,18.60
2012,07,05,16,04,18.80
2012,07,05,16,05,18.90
2012,07,05,16,06,18.90
2012,07,05,16,07,19.10
2012,07,05,16,08,19.00
2012,07,05,16,09,19.00
2012,07,05,16,10,18.90
2012,07,05,16,11,18.80
2012,07,05,16,12,18.80
2012,07,05,16,13,18.80
2012,07,05,16,14,18.80
2012,07,05,16,15,18.90
2012,07,05,16,16,19.00
2012,07,05,16,17,19.10
2012,07,05,16,18,19.10
2012,07,05,16,19,19.10
2012,07,05,16,20,19.00
2012,07,05,16,21,19.10
2012,07,05,16,22,19.10
2012,07,05,16,23,19.10
2012,07,05,16,24,19.10
2012,07,05,16,25,19.10
2012,07,05,16,26,19.30
2012,07,05,16,27,19.40
2012,07,05,16,28,19.40
2012,07,05,16,29,19.40
2012,07,05,16,30,19.30
2012,07,05,16,31,19.30
2012,07,05,16,32,19.30
2012,07,05,16,33,19.30
2012,07,05,16,34,19.30
2012,07,05,16,35,19.40
2012,07,05,16,36,19.50
2012,07,05,16,37,19.50
2012,07,05,16,38,19.50
2012,07,05,16,39,19.50
2012,07,05,16,40,19.50
2012,07,05,16,41,19.40
2012,07,05,16,42,19.40
2012,07,05,16,43,19.40
2012,07,05,16,44,19.30
2012,07,05,16,45,19.30
2012,07,05,16,46,19.30
2012,07,05,16,47,19.30
2012,07,05,16,48,19.30
2012,07,05,16,49,19.20
2012,07,05,16,50,19.20
2012,07,05,16,51,19.10
2012,07,05,16,52,19.20
2012,07,05,16,53,19.20
2012,07,05,16,54,19.20
2012,07,05,16,55,19.20
2012,07,05,16,56,19.20
2012,07,05,16,57,19.20
2012,07,05,16,58,19.20
2012,07,05,16,59,19.20
2012,07,05,17,00,19.30
2012,07,05,17,01,19.30
2012,07,05,17,02,19.30
2012,07,05,17,03,19.30
2012,07,05,17,04,19.30
2012,07,05,17,05,19.40
2012,07,05,17,06,19.60
2012,07,05,17,07,19.60
2012,07,05,17,08,19.70
2012,07,05,17,09,19.60
2012,07,05,17,10,19.60
2012,07,05,17,11,19.60
2012,07,05,17,12,19.60
2012,07,05,17,13,19.60
2012,07,05,17,14,19.70
2012,07,05,17,15,19.70
2012,07,05,17,16,19.60
2012,07,05,17,17,19.60
2012,07,05,17,18,19.60
2012,07,05,17,19,19.60
2012,07,05,17,20,19.70
2012,07,05,17,21,19.70
2012,07,05,17,22,19.80
2012,07,05,17,23,20.00
2012,07,05,17,24,20.10
2012,07,05,17,25,20.20
2012,07,05,17,26,20.30
2012,07,05,17,27,20.40
2012,07,05,17,28,20.40